Time,TemperatureF,DewpointF,PressureIn,WindDirection,WindDirectionDegrees,WindSpeedMPH,WindSpeedGustMPH,Humidity,HourlyPrecipIn,Conditions,Clouds,dailyrainin,SoftwareType,DateUTC
2013-01-05 00:00:00,22.9,19.4,30.33,West,259,0.0,1.0,86,0.00,,,0.00,VWS V14.01,2013-01-05 05:00:00,
2013-01-05 00:05:00,22.9,19.4,30.33,SSW,195,3.0,3.0,86,0.00,,,0.00,VWS V14.01,2013-01-05 05:05:00,
2013-01-05 00:10:00,22.9,19.4,30.33,SW,234,0.0,4.0,86,0.00,,,0.00,VWS V14.01,2013-01-05 05:10:00,
2013-01-05 00:15:00,22.8,19.2,30.33,West,277,1.0,4.0,86,0.00,,,0.00,VWS V14.01,2013-01-05 05:15:00,
2013-01-05 00:20:00,22.8,19.2,30.33,SW,229,1.0,4.0,86,0.00,,,0.00,VWS V14.01,2013-01-05 05:20:00,
2013-01-05 00:25:00,22.7,19.1,30.33,SW,231,0.0,4.0,86,0.00,,,0.00,VWS V14.01,2013-01-05 05:25:00,
2013-01-05 00:30:00,22.6,19.0,30.33,WSW,252,1.0,1.0,86,0.00,,,0.00,VWS V14.01,2013-01-05 05:30:00,
2013-01-05 00:35:00,22.6,19.0,30.33,SW,218,1.0,2.0,86,0.00,,,0.00,VWS V14.01,2013-01-05 05:35:00,
2013-01-05 00:40:00,22.5,19.0,30.33,WSW,252,1.0,2.0,86,0.00,,,0.00,VWS V14.01,2013-01-05 05:40:00,
2013-01-05 00:45:00,22.4,19.1,30.33,SW,214,0.0,2.0,87,0.00,,,0.00,VWS V14.01,2013-01-05 05:45:00,
2013-01-05 00:50:00,22.4,19.1,30.33,SSW,201,0.0,3.0,87,0.00,,,0.00,VWS V14.01,2013-01-05 05:50:00,
2013-01-05 00:55:00,22.3,19.0,30.33,South,169,2.0,3.0,87,0.00,,,0.00,VWS V14.01,2013-01-05 05:55:00,
2013-01-05 01:00:00,22.3,19.0,30.33,WSW,242,0.0,1.0,87,0.00,,,0.00,VWS V14.01,2013-01-05 06:00:00,
2013-01-05 01:05:00,22.3,19.0,30.33,SSW,203,0.0,1.0,87,0.00,,,0.00,VWS V14.01,2013-01-05 06:05:00,
2013-01-05 01:10:00,22.2,18.9,30.32,WSW,253,0.0,2.0,87,0.00,,,0.00,VWS V14.01,2013-01-05 06:10:00,
2013-01-05 01:15:00,22.1,18.8,30.32,SW,214,1.0,2.0,87,0.00,,,0.00,VWS V14.01,2013-01-05 06:15:00,
2013-01-05 01:20:00,22.1,19.1,30.32,SSW,193,0.0,2.0,88,0.00,,,0.00,VWS V14.01,2013-01-05 06:20:00,
2013-01-05 01:25:00,22.2,19.2,30.32,South,183,0.0,2.0,88,0.00,,,0.00,VWS V14.01,2013-01-05 06:25:00,
2013-01-05 01:30:00,22.2,19.2,30.32,WSW,239,0.0,2.0,88,0.00,,,0.00,VWS V14.01,2013-01-05 06:30:00,
2013-01-05 01:31:00,22.1,19.1,30.32,SSW,194,0.0,0.0,88,0.00,,,0.00,VWS V14.01,2013-01-05 06:31:00,
2013-01-05 01:36:00,22.1,19.1,30.32,SSE,158,0.0,1.0,88,0.00,,,0.00,VWS V14.01,2013-01-05 06:36:00,
2013-01-05 01:41:00,22.1,19.1,30.32,SW,214,0.0,2.0,88,0.00,,,0.00,VWS V14.01,2013-01-05 06:41:00,
2013-01-05 01:46:00,22.1,19.1,30.32,SSW,203,0.0,2.0,88,0.00,,,0.00,VWS V14.01,2013-01-05 06:46:00,
2013-01-05 01:51:00,22.2,18.9,30.32,South,176,1.0,3.0,87,0.00,,,0.00,VWS V14.01,2013-01-05 06:51:00,
2013-01-05 01:56:00,22.3,19.0,30.32,South,191,1.0,4.0,87,0.00,,,0.00,VWS V14.01,2013-01-05 06:56:00,
2013-01-05 02:00:00,22.3,19.0,30.32,SSW,204,2.0,4.0,87,0.00,,,0.00,VWS V14.01,2013-01-05 07:00:00,
2013-01-05 02:01:00,22.3,19.0,30.33,WSW,243,1.0,3.0,87,0.00,,,0.00,VWS V14.01,2013-01-05 07:01:00,
2013-01-05 02:06:00,22.3,19.0,30.33,WSW,243,2.0,4.0,87,0.00,,,0.00,VWS V14.01,2013-01-05 07:06:00,
2013-01-05 02:11:00,22.3,19.0,30.33,SW,219,1.0,4.0,87,0.00,,,0.00,VWS V14.01,2013-01-05 07:11:00,
2013-01-05 02:16:00,22.2,18.9,30.33,SSE,167,1.0,5.0,87,0.00,,,0.00,VWS V14.01,2013-01-05 07:16:00,
2013-01-05 02:21:00,22.3,19.0,30.33,SSW,198,2.0,5.0,87,0.00,,,0.00,VWS V14.01,2013-01-05 07:21:00,
2013-01-05 02:26:00,22.1,18.6,30.33,SW,228,2.0,5.0,86,0.00,,,0.00,VWS V14.01,2013-01-05 07:26:00,
2013-01-05 02:30:00,22.0,18.7,30.33,SW,221,0.0,5.0,87,0.00,,,0.00,VWS V14.01,2013-01-05 07:30:00,
2013-01-05 02:31:00,22.0,18.7,30.33,WSW,245,0.0,3.0,87,0.00,,,0.00,VWS V14.01,2013-01-05 07:31:00,
2013-01-05 02:36:00,22.0,18.7,30.33,SW,224,0.0,2.0,87,0.00,,,0.00,VWS V14.01,2013-01-05 07:36:00,
2013-01-05 02:41:00,21.9,18.6,30.34,WSW,253,0.0,2.0,87,0.00,,,0.00,VWS V14.01,2013-01-05 07:41:00,
2013-01-05 02:46:00,21.9,18.9,30.34,SW,223,0.0,3.0,88,0.00,,,0.00,VWS V14.01,2013-01-05 07:46:00,
2013-01-05 02:51:00,21.9,18.9,30.33,WSW,248,0.0,3.0,88,0.00,,,0.00,VWS V14.01,2013-01-05 07:51:00,
2013-01-05 02:56:00,21.9,18.9,30.34,WSW,238,0.0,3.0,88,0.00,,,0.00,VWS V14.01,2013-01-05 07:56:00,
2013-01-05 03:00:00,21.9,18.9,30.34,SW,219,0.0,3.0,88,0.00,,,0.00,VWS V14.01,2013-01-05 08:00:00,
2013-01-05 03:01:00,21.9,18.9,30.34,SW,217,1.0,2.0,88,0.00,,,0.00,VWS V14.01,2013-01-05 08:01:00,
2013-01-05 03:06:00,21.9,18.9,30.34,WSW,250,1.0,2.0,88,0.00,,,0.00,VWS V14.01,2013-01-05 08:06:00,
2013-01-05 03:11:00,22.0,19.3,30.34,SW,226,0.0,2.0,89,0.00,,,0.00,VWS V14.01,2013-01-05 08:11:00,
2013-01-05 03:15:00,22.1,19.4,30.34,WSW,241,0.0,2.0,89,0.00,,,0.00,VWS V14.01,2013-01-05 08:15:00,
2013-01-05 03:20:00,22.1,19.4,30.34,SSW,213,2.0,4.0,89,0.00,,,0.00,VWS V14.01,2013-01-05 08:20:00,
2013-01-05 03:25:00,22.2,19.5,30.34,West,259,0.0,4.0,89,0.00,,,0.00,VWS V14.01,2013-01-05 08:25:00,
2013-01-05 03:30:00,22.2,19.5,30.34,WSW,255,0.0,1.0,89,0.00,,,0.00,VWS V14.01,2013-01-05 08:30:00,
2013-01-05 03:38:00,22.2,20.0,30.35,SSW,213,0.0,2.0,89,0.00,,,0.00,weatherlink.com 1.10,2013-01-05 08:38:00,
2013-01-05 03:49:00,22.2,20.0,30.35,SW,219,0.0,1.0,89,0.00,,,0.00,weatherlink.com 1.10,2013-01-05 08:49:00,
2013-01-05 04:00:00,22.0,19.3,30.35,SW,225,0.0,2.0,89,0.00,,,0.00,VWS V14.01,2013-01-05 09:00:00,
2013-01-05 04:04:00,21.8,19.0,30.34,SSW,193,0.0,1.0,89,0.00,,,0.00,weatherlink.com 1.10,2013-01-05 09:04:00,
2013-01-05 04:19:00,21.8,19.0,30.34,WSW,248,0.0,2.0,90,0.00,,,0.00,weatherlink.com 1.10,2013-01-05 09:19:00,
2013-01-05 04:30:00,21.9,19.4,30.34,SSW,202,0.0,2.0,90,0.00,,,0.00,VWS V14.01,2013-01-05 09:30:00,
2013-01-05 04:34:00,21.9,20.0,30.34,West,280,0.0,1.0,90,0.00,,,0.00,weatherlink.com 1.10,2013-01-05 09:34:00,
2013-01-05 04:49:00,22.2,20.0,30.33,South,174,1.0,2.0,90,0.00,,,0.00,weatherlink.com 1.10,2013-01-05 09:49:00,
2013-01-05 05:00:00,22.0,19.5,30.34,SSW,204,0.0,4.0,90,0.00,,,0.00,VWS V14.01,2013-01-05 10:00:00,
2013-01-05 05:02:00,22.1,19.6,30.33,SSW,207,3.0,3.0,90,0.00,,,0.00,VWS V14.01,2013-01-05 10:02:00,
2013-01-05 05:07:00,22.2,19.7,30.33,SW,229,0.0,3.0,90,0.00,,,0.00,VWS V14.01,2013-01-05 10:07:00,
2013-01-05 05:12:00,22.2,19.7,30.33,SW,221,0.0,3.0,90,0.00,,,0.00,VWS V14.01,2013-01-05 10:12:00,
2013-01-05 05:17:00,22.1,19.4,30.33,SSW,207,0.0,3.0,89,0.00,,,0.00,VWS V14.01,2013-01-05 10:17:00,
2013-01-05 05:22:00,22.1,19.6,30.34,SSW,193,0.0,3.0,90,0.00,,,0.00,VWS V14.01,2013-01-05 10:22:00,
2013-01-05 05:27:00,22.2,19.7,30.33,SW,222,0.0,3.0,90,0.00,,,0.00,VWS V14.01,2013-01-05 10:27:00,
2013-01-05 05:30:00,22.2,19.7,30.34,SW,222,0.0,3.0,90,0.00,,,0.00,VWS V14.01,2013-01-05 10:30:00,
2013-01-05 05:32:00,22.1,19.6,30.34,SSW,213,0.0,2.0,90,0.00,,,0.00,VWS V14.01,2013-01-05 10:32:00,
2013-01-05 05:37:00,22.1,19.6,30.34,SSW,207,2.0,2.0,90,0.00,,,0.00,VWS V14.01,2013-01-05 10:37:00,
2013-01-05 05:42:00,22.1,19.6,30.34,SSW,201,2.0,4.0,90,0.00,,,0.00,VWS V14.01,2013-01-05 10:42:00,
2013-01-05 05:47:00,22.0,19.5,30.34,SSW,201,1.0,4.0,90,0.00,,,0.00,VWS V14.01,2013-01-05 10:47:00,
2013-01-05 05:52:00,22.0,19.5,30.34,SSW,200,0.0,4.0,90,0.00,,,0.00,VWS V14.01,2013-01-05 10:52:00,
2013-01-05 05:57:00,22.0,19.5,30.34,SSW,207,0.0,4.0,90,0.00,,,0.00,VWS V14.01,2013-01-05 10:57:00,
2013-01-05 06:00:00,22.0,19.5,30.34,SSW,204,0.0,4.0,90,0.00,,,0.00,VWS V14.01,2013-01-05 11:00:00,
2013-01-05 06:02:00,21.9,19.4,30.33,SW,218,1.0,2.0,90,0.00,,,0.00,VWS V14.01,2013-01-05 11:02:00,
2013-01-05 06:07:00,21.8,19.3,30.33,South,170,2.0,3.0,90,0.00,,,0.00,VWS V14.01,2013-01-05 11:07:00,
2013-01-05 06:12:00,21.8,19.3,30.33,SE,127,0.0,3.0,90,0.00,,,0.00,VWS V14.01,2013-01-05 11:12:00,
2013-01-05 06:17:00,21.7,19.2,30.33,SSW,201,0.0,3.0,90,0.00,,,0.00,VWS V14.01,2013-01-05 11:17:00,
2013-01-05 06:22:00,21.6,19.1,30.33,SSE,165,0.0,3.0,90,0.00,,,0.00,VWS V14.01,2013-01-05 11:22:00,
2013-01-05 06:27:00,21.5,19.0,30.32,SSE,159,1.0,3.0,90,0.00,,,0.00,VWS V14.01,2013-01-05 11:27:00,
2013-01-05 06:30:00,21.5,19.0,30.32,SSE,158,1.0,3.0,90,0.00,,,0.00,VWS V14.01,2013-01-05 11:30:00,
2013-01-05 06:32:00,21.4,18.9,30.32,SE,143,1.0,1.0,90,0.00,,,0.00,VWS V14.01,2013-01-05 11:32:00,
2013-01-05 06:37:00,21.3,18.8,30.32,SSE,163,0.0,1.0,90,0.00,,,0.00,VWS V14.01,2013-01-05 11:37:00,
2013-01-05 06:42:00,21.3,18.8,30.32,South,188,0.0,1.0,90,0.00,,,0.00,VWS V14.01,2013-01-05 11:42:00,
2013-01-05 06:47:00,21.3,18.8,30.32,SE,141,0.0,1.0,90,0.00,,,0.00,VWS V14.01,2013-01-05 11:47:00,
2013-01-05 06:52:00,21.2,18.7,30.32,SSW,197,0.0,1.0,90,0.00,,,0.00,VWS V14.01,2013-01-05 11:52:00,
2013-01-05 06:57:00,21.2,18.7,30.32,SSE,167,0.0,1.0,90,0.00,,,0.00,VWS V14.01,2013-01-05 11:57:00,
2013-01-05 07:00:00,21.1,18.6,30.32,South,169,0.0,1.0,90,0.00,,,0.00,VWS V14.01,2013-01-05 12:00:00,
2013-01-05 07:02:00,21.1,18.6,30.32,SSW,197,0.0,1.0,90,0.00,,,0.00,VWS V14.01,2013-01-05 12:02:00,
2013-01-05 07:08:00,21.1,18.9,30.32,South,187,1.0,1.0,91,0.00,,,0.00,VWS V14.01,2013-01-05 12:08:00,
2013-01-05 07:13:00,21.3,18.8,30.32,SSW,207,0.0,2.0,90,0.00,,,0.00,VWS V14.01,2013-01-05 12:13:00,
2013-01-05 07:18:00,21.4,18.9,30.32,SSW,200,2.0,3.0,90,0.00,,,0.00,VWS V14.01,2013-01-05 12:18:00,
2013-01-05 07:23:00,21.5,19.0,30.32,SSW,212,1.0,3.0,90,0.00,,,0.00,VWS V14.01,2013-01-05 12:23:00,
2013-01-05 07:28:00,21.5,19.0,30.32,SSW,193,1.0,1.0,90,0.00,,,0.00,VWS V14.01,2013-01-05 12:28:00,
2013-01-05 07:30:00,21.5,19.0,30.32,SSW,192,1.0,3.0,90,0.00,,,0.00,VWS V14.01,2013-01-05 12:30:00,
2013-01-05 07:33:00,21.6,19.1,30.32,SSW,200,1.0,3.0,90,0.00,,,0.00,VWS V14.01,2013-01-05 12:33:00,
2013-01-05 07:38:00,21.6,19.1,30.32,SW,232,2.0,3.0,90,0.00,,,0.00,VWS V14.01,2013-01-05 12:38:00,
2013-01-05 07:42:00,21.7,19.2,30.32,South,184,2.0,3.0,90,0.00,,,0.00,VWS V14.01,2013-01-05 12:42:00,
2013-01-05 07:48:00,21.7,19.2,30.32,SSE,160,0.0,0.0,90,0.00,,,0.00,VWS V14.01,2013-01-05 12:48:00,
2013-01-05 07:53:00,21.6,19.1,30.32,SW,222,0.0,1.0,90,0.00,,,0.00,VWS V14.01,2013-01-05 12:53:00,
2013-01-05 07:58:00,21.7,19.2,30.32,South,186,2.0,2.0,90,0.00,,,0.00,VWS V14.01,2013-01-05 12:58:00,
2013-01-05 08:00:00,21.7,19.2,30.32,South,190,1.0,5.0,90,0.00,,,0.00,VWS V14.01,2013-01-05 13:00:00,
2013-01-05 08:02:00,21.7,19.2,30.32,SSW,194,0.0,3.0,90,0.00,,,0.00,VWS V14.01,2013-01-05 13:02:00,
2013-01-05 08:07:00,21.9,19.4,30.32,SW,225,2.0,3.0,90,0.00,,,0.00,VWS V14.01,2013-01-05 13:07:00,
2013-01-05 08:12:00,22.0,19.3,30.32,South,181,4.0,5.0,89,0.00,,,0.00,VWS V14.01,2013-01-05 13:12:00,
2013-01-05 08:17:00,22.1,19.4,30.33,SSW,193,3.0,5.0,89,0.00,,,0.00,VWS V14.01,2013-01-05 13:17:00,
2013-01-05 08:22:00,22.2,19.5,30.33,SSW,194,3.0,5.0,89,0.00,,,0.00,VWS V14.01,2013-01-05 13:22:00,
2013-01-05 08:27:00,22.3,19.3,30.33,SSW,195,2.0,3.0,88,0.00,,,0.00,VWS V14.01,2013-01-05 13:27:00,
2013-01-05 08:30:00,22.3,19.3,30.33,SSW,195,2.0,3.0,88,0.00,,,0.00,VWS V14.01,2013-01-05 13:30:00,
2013-01-05 08:32:00,22.5,19.8,30.33,SSE,159,2.0,6.0,89,0.00,,,0.00,VWS V14.01,2013-01-05 13:32:00,
2013-01-05 08:37:00,22.6,19.6,30.33,SSW,211,4.0,6.0,88,0.00,,,0.00,VWS V14.01,2013-01-05 13:37:00,
2013-01-05 08:42:00,22.9,19.9,30.33,SSW,211,4.0,6.0,88,0.00,,,0.00,VWS V14.01,2013-01-05 13:42:00,
2013-01-05 08:47:00,23.3,20.0,30.33,SSE,162,3.0,6.0,87,0.00,,,0.00,VWS V14.01,2013-01-05 13:47:00,
2013-01-05 08:52:00,23.6,20.3,30.32,South,180,2.0,6.0,87,0.00,,,0.00,VWS V14.01,2013-01-05 13:52:00,
2013-01-05 08:57:00,23.8,20.5,30.32,SSW,208,0.0,0.0,87,0.00,,,0.00,VWS V14.01,2013-01-05 13:57:00,
2013-01-05 09:00:00,23.8,20.5,30.32,South,190,0.0,6.0,87,0.00,,,0.00,VWS V14.01,2013-01-05 14:00:00,
2013-01-05 09:02:00,24.2,20.9,30.31,SSW,213,2.0,2.0,87,0.00,,,0.00,VWS V14.01,2013-01-05 14:02:00,
2013-01-05 09:07:00,24.8,21.2,30.31,South,183,1.0,2.0,86,0.00,,,0.00,VWS V14.01,2013-01-05 14:07:00,
2013-01-05 09:22:00,25.8,22.0,30.32,SSW,193,1.0,6.0,84,0.00,,,0.00,weatherlink.com 1.10,2013-01-05 14:22:00,
2013-01-05 09:30:00,25.6,21.5,30.32,SSW,202,1.0,7.0,84,0.00,,,0.00,VWS V14.01,2013-01-05 14:30:00,
2013-01-05 09:37:00,26.1,22.0,30.32,WSW,255,3.0,5.0,84,0.00,,,0.00,weatherlink.com 1.10,2013-01-05 14:37:00,
2013-01-05 09:52:00,27.1,22.0,30.32,SE,132,1.0,6.0,81,0.00,,,0.00,weatherlink.com 1.10,2013-01-05 14:52:00,
2013-01-05 10:00:00,27.5,22.5,30.32,SSW,202,2.0,6.0,81,0.00,,,0.00,VWS V14.01,2013-01-05 15:00:00,
2013-01-05 10:07:00,28.4,23.0,30.30,SW,215,3.0,7.0,79,0.00,,,0.00,weatherlink.com 1.10,2013-01-05 15:07:00,
2013-01-05 10:22:00,29.1,23.0,30.30,SW,215,0.0,7.0,79,0.00,,,0.00,weatherlink.com 1.10,2013-01-05 15:22:00,
2013-01-05 10:30:00,29.6,23.6,30.30,SSW,202,2.0,7.0,78,0.00,,,0.00,VWS V14.01,2013-01-05 15:30:00,
2013-01-05 10:37:00,30.6,24.0,30.31,SSW,211,6.0,6.0,76,0.00,,,0.00,weatherlink.com 1.10,2013-01-05 15:37:00,
2013-01-05 10:52:00,30.8,24.0,30.31,SW,224,5.0,8.0,75,0.00,,,0.00,weatherlink.com 1.10,2013-01-05 15:52:00,
2013-01-05 11:00:00,30.7,24.0,30.31,SSW,202,3.0,8.0,76,0.00,,,0.00,VWS V14.01,2013-01-05 16:00:00,
2013-01-05 11:07:00,30.5,24.0,30.31,South,186,8.0,10.0,76,0.00,,,0.00,weatherlink.com 1.10,2013-01-05 16:07:00,
2013-01-05 11:22:00,31.0,24.0,30.30,SE,145,4.0,9.0,75,0.00,,,0.00,weatherlink.com 1.10,2013-01-05 16:22:00,
2013-01-05 11:30:00,31.1,24.1,30.30,SSW,202,4.0,10.0,75,0.00,,,0.00,VWS V14.01,2013-01-05 16:30:00,
2013-01-05 11:37:00,31.6,25.0,30.30,SW,215,7.0,7.0,75,0.00,,,0.00,weatherlink.com 1.10,2013-01-05 16:37:00,
2013-01-05 11:52:00,32.7,26.0,30.28,SSW,201,1.0,7.0,75,0.00,,,0.00,weatherlink.com 1.10,2013-01-05 16:52:00,
2013-01-05 12:00:00,32.9,25.5,30.28,SSW,202,3.0,9.0,74,0.00,,,0.00,VWS V14.01,2013-01-05 17:00:00,
2013-01-05 12:07:00,33.5,26.0,30.28,SW,214,1.0,7.0,74,0.00,,,0.00,weatherlink.com 1.10,2013-01-05 17:07:00,
2013-01-05 12:23:00,33.4,26.0,30.27,South,190,2.0,11.0,73,0.00,,,0.00,weatherlink.com 1.10,2013-01-05 17:23:00,
2013-01-05 12:30:00,33.1,25.7,30.27,SSW,202,3.0,11.0,74,0.00,,,0.00,VWS V14.01,2013-01-05 17:30:00,
2013-01-05 12:38:00,33.0,26.0,30.26,SSW,208,3.0,10.0,76,0.00,,,0.00,weatherlink.com 1.10,2013-01-05 17:38:00,
2013-01-05 12:53:00,33.3,27.0,30.25,ESE,121,6.0,10.0,76,0.00,,,0.00,weatherlink.com 1.10,2013-01-05 17:53:00,
2013-01-05 13:00:00,33.5,26.8,30.25,SSW,202,4.0,10.0,76,0.00,,,0.00,VWS V14.01,2013-01-05 18:00:00,
2013-01-05 13:08:00,34.2,27.0,30.24,South,191,2.0,7.0,75,0.00,,,0.00,weatherlink.com 1.10,2013-01-05 18:08:00,
2013-01-05 13:23:00,34.7,27.0,30.22,SSW,193,5.0,7.0,74,0.00,,,0.00,weatherlink.com 1.10,2013-01-05 18:23:00,
2013-01-05 13:30:00,35.0,27.6,30.22,SSW,202,3.0,9.0,74,0.00,,,0.00,VWS V14.01,2013-01-05 18:30:00,
2013-01-05 13:38:00,35.7,28.0,30.22,South,170,4.0,10.0,73,0.00,,,0.00,weatherlink.com 1.10,2013-01-05 18:38:00,
2013-01-05 13:53:00,35.6,28.0,30.21,ESE,103,3.0,9.0,73,0.01,,,0.01,weatherlink.com 1.10,2013-01-05 18:53:00,
2013-01-05 14:00:00,35.7,28.2,30.21,South,180,3.0,12.0,74,0.01,,,0.01,VWS V14.01,2013-01-05 19:00:00,
2013-01-05 14:08:00,36.0,28.0,30.20,WSW,247,0.0,8.0,73,0.01,,,0.01,weatherlink.com 1.10,2013-01-05 19:08:00,
2013-01-05 14:23:00,36.8,29.0,30.19,SW,226,3.0,7.0,73,0.01,,,0.01,weatherlink.com 1.10,2013-01-05 19:23:00,
2013-01-05 14:30:00,36.8,28.6,30.19,SSW,202,3.0,9.0,72,0.01,,,0.01,VWS V14.01,2013-01-05 19:30:00,
2013-01-05 14:38:00,36.8,29.0,30.19,South,169,2.0,9.0,72,0.01,,,0.01,weatherlink.com 1.10,2013-01-05 19:38:00,
2013-01-05 14:53:00,36.1,28.0,30.19,SW,221,5.0,9.0,73,0.00,,,0.01,weatherlink.com 1.10,2013-01-05 19:53:00,
2013-01-05 15:00:00,35.9,28.4,30.19,SW,225,3.0,8.0,74,0.01,,,0.01,VWS V14.01,2013-01-05 20:00:00,
2013-01-05 15:08:00,36.1,29.0,30.18,SSW,213,2.0,5.0,74,0.01,,,0.02,weatherlink.com 1.10,2013-01-05 20:08:00,
2013-01-05 15:23:00,35.6,28.0,30.18,SW,222,2.0,7.0,75,0.01,,,0.02,weatherlink.com 1.10,2013-01-05 20:23:00,
2013-01-05 15:30:00,35.5,28.7,30.18,SSW,202,2.0,8.0,76,0.01,,,0.02,VWS V14.01,2013-01-05 20:30:00,
2013-01-05 15:38:00,35.3,28.0,30.19,SSW,207,4.0,7.0,76,0.01,,,0.02,weatherlink.com 1.10,2013-01-05 20:38:00,
2013-01-05 15:53:00,35.2,29.0,30.18,South,177,5.0,7.0,77,0.01,,,0.02,weatherlink.com 1.10,2013-01-05 20:53:00,
2013-01-05 16:00:00,35.1,28.6,30.18,SW,225,2.0,9.0,77,0.01,,,0.02,VWS V14.01,2013-01-05 21:00:00,
2013-01-05 16:08:00,35.0,28.0,30.20,SSW,211,2.0,7.0,77,0.00,,,0.02,weatherlink.com 1.10,2013-01-05 21:08:00,
2013-01-05 16:23:00,34.0,30.0,30.20,WSW,258,2.0,11.0,84,0.00,,,0.02,weatherlink.com 1.10,2013-01-05 21:23:00,
2013-01-05 16:30:00,33.8,29.8,30.20,SW,225,4.0,12.0,85,0.01,,,0.02,VWS V14.01,2013-01-05 21:30:00,
2013-01-05 16:38:00,33.4,30.0,30.19,WSW,243,2.0,5.0,87,0.00,,,0.02,weatherlink.com 1.10,2013-01-05 21:38:00,
2013-01-05 16:53:00,33.3,30.0,30.20,SSW,201,2.0,6.0,88,0.00,,,0.02,weatherlink.com 1.10,2013-01-05 21:53:00,
2013-01-05 17:00:00,33.3,30.1,30.19,SW,225,2.0,6.0,88,0.00,,,0.02,VWS V14.01,2013-01-05 22:00:00,
2013-01-05 17:08:00,33.3,30.0,30.19,WSW,238,3.0,5.0,88,0.00,,,0.02,weatherlink.com 1.10,2013-01-05 22:08:00,
2013-01-05 17:23:00,33.4,30.0,30.19,West,259,1.0,6.0,87,0.00,,,0.02,weatherlink.com 1.10,2013-01-05 22:23:00,
2013-01-05 17:30:00,33.4,30.0,30.19,SSW,202,2.0,9.0,87,0.00,,,0.02,VWS V14.01,2013-01-05 22:30:00,
2013-01-05 17:38:00,33.4,30.0,30.18,SSE,163,0.0,8.0,86,0.00,,,0.02,weatherlink.com 1.10,2013-01-05 22:38:00,
2013-01-05 17:53:00,33.3,30.0,30.18,SSW,203,2.0,8.0,87,0.00,,,0.02,weatherlink.com 1.10,2013-01-05 22:53:00,
2013-01-05 18:00:00,33.2,29.8,30.18,SSW,202,3.0,8.0,87,0.00,,,0.02,VWS V14.01,2013-01-05 23:00:00,
2013-01-05 18:08:00,33.1,30.0,30.18,SW,217,2.0,8.0,87,0.00,,,0.02,weatherlink.com 1.10,2013-01-05 23:08:00,
2013-01-05 18:23:00,32.9,30.0,30.17,SSE,167,3.0,8.0,87,0.00,,,0.02,weatherlink.com 1.10,2013-01-05 23:23:00,
2013-01-05 18:30:00,32.9,29.5,30.17,SSW,202,3.0,10.0,87,0.00,,,0.02,VWS V14.01,2013-01-05 23:30:00,
2013-01-05 18:38:00,32.9,30.0,30.16,SW,226,3.0,7.0,87,0.00,,,0.02,weatherlink.com 1.10,2013-01-05 23:38:00,
2013-01-05 18:53:00,32.9,30.0,30.16,SE,141,1.0,9.0,87,0.00,,,0.02,weatherlink.com 1.10,2013-01-05 23:53:00,
2013-01-05 19:00:00,32.9,29.5,30.16,SSW,202,3.0,9.0,87,0.00,,,0.02,VWS V14.01,2013-01-06 00:00:00,
2013-01-05 19:08:00,32.8,29.0,30.17,SSW,195,1.0,7.0,87,0.00,,,0.02,weatherlink.com 1.10,2013-01-06 00:08:00,
2013-01-05 19:23:00,32.7,30.0,30.17,SE,142,1.0,7.0,88,0.00,,,0.02,weatherlink.com 1.10,2013-01-06 00:23:00,
2013-01-05 19:30:00,32.7,29.8,30.17,SSW,202,3.0,8.0,89,0.00,,,0.02,VWS V14.01,2013-01-06 00:30:00,
2013-01-05 19:38:00,32.5,30.0,30.17,SW,226,2.0,9.0,89,0.00,,,0.02,weatherlink.com 1.10,2013-01-06 00:38:00,
2013-01-05 19:53:00,32.3,30.0,30.17,SSW,207,3.0,9.0,90,0.00,,,0.02,weatherlink.com 1.10,2013-01-06 00:53:00,
2013-01-05 20:00:00,32.3,29.7,30.17,SSW,202,3.0,10.0,90,0.00,,,0.02,VWS V14.01,2013-01-06 01:00:00,
2013-01-05 20:08:00,32.1,30.0,30.17,SW,228,3.0,7.0,90,0.00,,,0.02,weatherlink.com 1.10,2013-01-06 01:08:00,
2013-01-05 20:23:00,32.1,30.0,30.16,SSW,200,5.0,8.0,90,0.00,,,0.02,weatherlink.com 1.10,2013-01-06 01:23:00,
2013-01-05 20:30:00,32.2,29.6,30.16,SSW,202,3.0,13.0,90,0.00,,,0.02,VWS V14.01,2013-01-06 01:30:00,
2013-01-05 20:38:00,32.3,30.0,30.16,SW,223,1.0,9.0,90,0.00,,,0.02,weatherlink.com 1.10,2013-01-06 01:38:00,
2013-01-05 20:53:00,32.5,30.0,30.15,South,184,6.0,7.0,89,0.00,,,0.02,weatherlink.com 1.10,2013-01-06 01:53:00,
2013-01-05 21:00:00,32.5,29.6,30.15,SSW,202,3.0,10.0,89,0.00,,,0.02,VWS V14.01,2013-01-06 02:00:00,
2013-01-05 21:08:00,32.6,30.0,30.15,SSE,153,5.0,9.0,89,0.00,,,0.02,weatherlink.com 1.10,2013-01-06 02:08:00,
2013-01-05 21:23:00,32.8,30.0,30.15,SSE,150,4.0,10.0,89,0.00,,,0.02,weatherlink.com 1.10,2013-01-06 02:23:00,
2013-01-05 21:30:00,32.9,30.0,30.15,SSW,202,4.0,13.0,89,0.00,,,0.02,VWS V14.01,2013-01-06 02:30:00,
2013-01-05 21:38:00,33.3,30.0,30.15,SW,221,2.0,12.0,89,0.00,,,0.02,weatherlink.com 1.10,2013-01-06 02:38:00,
2013-01-05 21:54:00,33.6,30.0,30.14,South,188,5.0,13.0,88,0.00,,,0.02,weatherlink.com 1.10,2013-01-06 02:54:00,
2013-01-05 22:00:00,33.6,30.7,30.14,SSW,202,5.0,14.0,89,0.00,,,0.02,VWS V14.01,2013-01-06 03:00:00,
2013-01-05 22:09:00,33.5,31.0,30.14,SSW,194,3.0,11.0,89,0.00,,,0.02,weatherlink.com 1.10,2013-01-06 03:09:00,
2013-01-05 22:24:00,33.4,31.0,30.13,SSE,150,2.0,12.0,89,0.00,,,0.02,weatherlink.com 1.10,2013-01-06 03:24:00,
2013-01-05 22:30:00,33.4,30.5,30.13,SSW,202,4.0,13.0,89,0.00,,,0.02,VWS V14.01,2013-01-06 03:30:00,
2013-01-05 22:39:00,33.5,30.0,30.13,South,190,4.0,16.0,88,0.00,,,0.02,weatherlink.com 1.10,2013-01-06 03:39:00,
2013-01-05 22:54:00,33.6,30.0,30.12,South,188,2.0,13.0,88,0.00,,,0.02,weatherlink.com 1.10,2013-01-06 03:54:00,
2013-01-05 23:00:00,33.6,30.4,30.12,SSW,202,4.0,16.0,88,0.00,,,0.02,VWS V14.01,2013-01-06 04:00:00,
2013-01-05 23:09:00,33.7,30.0,30.12,South,179,4.0,13.0,87,0.00,,,0.02,weatherlink.com 1.10,2013-01-06 04:09:00,
2013-01-05 23:24:00,33.9,31.0,30.12,SW,224,5.0,14.0,87,0.00,,,0.02,weatherlink.com 1.10,2013-01-06 04:24:00,
2013-01-05 23:30:00,34.0,30.3,30.12,SSW,202,5.0,13.0,86,0.00,,,0.02,VWS V14.01,2013-01-06 04:30:00,
2013-01-05 23:39:00,34.0,30.0,30.11,South,185,4.0,9.0,86,0.00,,,0.02,weatherlink.com 1.10,2013-01-06 04:39:00,
2013-01-05 23:54:00,34.2,30.0,30.11,SSW,197,5.0,11.0,85,0.00,,,0.02,weatherlink.com 1.10,2013-01-06 04:54:00,